DW6942 Weather Reports


time (UTC)temp
C
wind
direction
speed
KPH
gust
KPH
rain 1hr
cm
rain 24hr
cm
rain mn
cm
humidity
%
barometer
mb
20260506110038 -17 0.0 0.0 0.00 0.00 0.00 1010.3
20260506104534 -17 0.0 0.0 0.00 0.00 0.00 1010.1
20260506103030 -17 0.0 0.0 0.00 0.00 0.00 1009.9
20260506101529 -17 0.0 0.0 0.00 0.00 0.00 1010.0
20260506100021 -17 0.0 0.0 0.00 0.00 0.00 1010.0
20260506094517 24 141 3.2 11.3 0.00 0.00 0.00 84 1009.7
20260506093017 24 125 3.2 9.7 0.00 0.00 0.00 85 1009.6
20260506091517 24 235 0.0 6.4 0.00 0.00 0.00 85 1009.6
20260506090016 24 117 1.6 11.3 0.00 0.00 0.00 85 1009.5
20260506084514 24 179 0.0 4.8 0.00 0.00 0.00 84 1009.3
20260506083013 24 224 1.6 6.4 0.00 0.00 0.00 84 1009.6
20260506081510 24 155 0.0 8.0 0.00 0.00 0.00 84 1009.7
20260506073004 24 198 0.0 4.8 0.00 0.00 0.00 84 1010.2
20260506071505 24 197 1.6 9.7 0.00 0.00 0.00 83 1010.6
20260506061601 24 148 0.0 6.4 0.00 0.00 0.00 83 1010.7
20260506060104 24 117 0.0 6.4 0.00 0.00 0.00 83 1010.6
20260506044551 25 210 1.6 6.4 0.00 0.00 0.00 81 1010.5
20260506043048 25 306 0.0 11.3 0.00 0.00 0.00 80 1010.5
20260506041549 25 238 0.0 4.8 0.00 0.00 0.00 80 1010.6
20260506040058 25 228 0.0 6.4 0.00 0.00 0.00 80 1010.3
20260506034549 25 127 1.6 6.4 0.00 0.00 0.00 80 1010.2
20260506033042 25 143 0.0 9.7 0.00 0.00 0.00 79 1009.9
20260506031554 25 210 1.6 9.7 0.00 0.00 0.00 79 1009.9
20260506030039 25 246 1.6 8.0 0.00 0.00 0.00 79 1009.8
20260506024539 25 231 1.6 8.0 0.00 0.00 0.00 78 1009.6
20260506023038 25 230 1.6 9.7 0.00 0.00 0.00 78 1009.3
20260506021538 26 124 3.2 8.0 0.00 0.00 0.00 78 1008.9
20260506020038 26 207 1.6 6.4 0.00 0.00 0.00 77 1008.7
20260506014536 26 210 1.6 11.3 0.00 0.00 0.00 77 1008.6
20260506013036 26 156 1.6 9.7 0.00 0.00 0.00 77 1008.3
20260506011538 26 153 3.2 11.3 0.00 0.00 0.00 77 1008.1
20260506010041 26 126 0.0 11.3 0.00 0.00 0.00 76 1008.0
20260506004536 26 250 1.6 6.4 0.00 0.00 0.00 75 1007.8
20260506003037 26 121 1.6 11.3 0.00 0.00 0.00 75 1007.8
20260506001532 27 271 3.2 16.1 0.00 0.00 0.00 75 1007.9
20260506000032 27 210 1.6 11.3 0.00 0.00 0.00 75 1007.7
20260505234530 27 139 1.6 8.0 0.00 0.00 0.00 75 1007.8
20260505233030 27 251 4.8 17.7 0.00 0.00 0.00 74 1007.6
20260505231544 27 252 4.8 16.1 0.00 0.00 0.00 74 1007.7
20260505230031 27 127 3.2 16.1 0.00 0.00 0.00 74 1007.8
20260505224528 27 176 1.6 11.3 0.00 0.00 0.00 74 1007.7
20260505223027 28 163 4.8 11.3 0.00 0.00 0.00 74 1007.6
20260505221526 27 242 3.2 11.3 0.00 0.00 0.00 74 1007.8
20260505220028 28 148 3.2 6.4 0.00 0.00 0.00 73 1007.7
20260505214527 28 133 3.2 12.9 0.00 0.00 0.00 72 1008.0
20260505213019 28 242 6.4 14.5 0.00 0.00 0.00 72 1008.3
20260505211518 28 215 3.2 12.9 0.00 0.00 0.00 73 1008.5
20260505210023 28 199 3.2 12.9 0.00 0.00 0.00 73 1008.6
20260505204513 28 132 1.6 17.7 0.00 0.00 0.00 73 1008.8
20260505203011 28 248 4.8 16.1 0.00 0.00 0.00 72 1009.1
20260505201510 28 248 1.6 16.1 0.00 0.00 0.00 74 1009.2
20260505200013 28 106 3.2 11.3 0.00 0.00 0.00 72 1009.4
20260505194506 28 246 6.4 17.7 0.00 0.00 0.00 72 1009.7
20260505193003 27 141 4.8 14.5 0.00 0.00 0.00 74 1009.8
20260505191501 27 229 1.6 11.3 0.00 0.00 0.00 75 1009.9
20260505184559 27 167 4.8 14.5 0.00 0.00 0.00 75 1010.1
20260505183055 26 138 6.4 19.3 0.00 0.00 0.00 77 1010.2
20260505181557 26 135 1.6 6.4 0.00 0.00 0.00 78 1010.3
20260505180049 26 147 3.2 11.3 0.00 0.00 0.00 78 1010.4
20260505174555 25 100 1.6 11.3 0.00 0.00 0.00 79 1010.5
20260505173048 26 129 1.6 14.5 0.00 0.00 0.00 79 1010.6
20260505171551 26 229 3.2 19.3 0.00 0.00 0.00 79 1010.8
20260505170044 25 300 1.6 8.0 0.00 0.00 0.00 81 1010.7
20260505164552 25 236 1.6 4.8 0.00 0.00 0.00 81 1010.9
20260505163050 25 238 0.0 4.8 0.00 0.00 0.00 82 1011.0
20260505161539 24 122 0.0 8.0 0.00 0.00 0.00 83 1010.9
20260505153036 24 134 4.8 14.5 0.00 0.00 0.00 80 1010.7
20260505151536 24 236 3.2 9.7 0.00 0.00 0.00 80 1010.6
20260505130112 -17 0.0 0.0 0.00 0.00 0.00 1010.3
20260505124601 -17 0.0 0.0 0.00 0.00 0.00 1009.9
20260505123051 -17 0.0 0.0 0.00 0.00 0.00 1009.8
20260505121548 -17 0.0 0.0 0.00 0.00 0.00 1010.0
20260505120045 -17 0.0 0.0 0.00 0.00 0.00 1009.8
20260505114537 -17 0.0 0.0 0.00 0.00 0.00 1009.5
20260505113032 -17 0.0 0.0 0.00 0.00 0.00 1009.8
20260505111535 -17 0.0 0.0 0.00 0.00 0.00 1009.9